TimePDT,TemperatureF,Dew PointF,Humidity,Sea Level PressureIn,VisibilityMPH,Wind Direction,Wind SpeedMPH,Gust SpeedMPH,PrecipitationIn,Events,Conditions,WindDirDegrees,DateUTC
12:56 AM,52.0,39.0,61,30.08,10.0,East,4.6,-,N/A,,Clear,80,2013-03-30 07:56:00
1:56 AM,52.0,39.0,61,30.07,10.0,East,3.5,-,N/A,,Clear,100,2013-03-30 08:56:00
2:56 AM,52.0,39.0,61,30.07,10.0,East,3.5,-,N/A,,Clear,90,2013-03-30 09:56:00
3:56 AM,51.1,39.0,63,30.06,10.0,East,3.5,-,N/A,,Clear,80,2013-03-30 10:56:00
4:56 AM,50.0,39.0,66,30.05,10.0,East,5.8,-,N/A,,Clear,100,2013-03-30 11:56:00
5:56 AM,48.0,41.0,77,30.06,10.0,ESE,6.9,-,N/A,,Clear,120,2013-03-30 12:56:00
6:56 AM,48.0,37.0,66,30.06,10.0,ESE,9.2,-,N/A,,Partly Cloudy,110,2013-03-30 13:56:00
7:56 AM,52.0,37.0,57,30.06,10.0,ESE,10.4,-,N/A,,Clear,110,2013-03-30 14:56:00
8:56 AM,54.0,39.0,57,30.05,10.0,ESE,8.1,-,N/A,,Clear,110,2013-03-30 15:56:00
9:56 AM,55.9,37.9,51,30.05,10.0,ESE,9.2,-,N/A,,Clear,110,2013-03-30 16:56:00
10:56 AM,61.0,39.0,44,30.03,10.0,ESE,10.4,17.3,N/A,,Clear,120,2013-03-30 17:56:00
11:56 AM,63.0,39.9,43,30.02,10.0,ESE,8.1,-,N/A,,Clear,110,2013-03-30 18:56:00
12:56 PM,66.0,41.0,40,30.01,10.0,ESE,6.9,-,N/A,,Clear,120,2013-03-30 19:56:00
1:56 PM,66.9,42.1,40,30.00,10.0,Variable,3.5,-,N/A,,Clear,0,2013-03-30 20:56:00
2:56 PM,64.9,43.0,45,29.98,10.0,Calm,Calm,-,N/A,,Clear,0,2013-03-30 21:56:00
3:56 PM,66.0,46.0,48,29.96,10.0,Calm,Calm,-,N/A,,Clear,0,2013-03-30 22:56:00
4:56 PM,63.0,43.0,48,29.96,10.0,NNW,3.5,-,N/A,,Clear,330,2013-03-30 23:56:00
5:56 PM,60.1,43.0,53,29.96,10.0,NNW,3.5,-,N/A,,Scattered Clouds,330,2013-03-31 00:56:00
6:56 PM,59.0,44.1,58,29.96,10.0,NNE,10.4,16.1,0.00,,Overcast,20,2013-03-31 01:56:00
7:56 PM,57.0,45.0,64,29.96,10.0,SW,6.9,-,0.00,,Overcast,230,2013-03-31 02:56:00
8:56 PM,55.9,41.0,57,29.99,6.0,Calm,Calm,-,0.02,Rain,Light Rain,0,2013-03-31 03:56:00
9:56 PM,50.0,46.0,86,29.98,10.0,NW,9.2,-,0.00,,Overcast,320,2013-03-31 04:56:00
10:49 PM,48.2,44.6,87,30.05,1.2,SW,5.8,-,N/A,,Mostly Cloudy,230,2013-03-31 05:49:00
10:56 PM,46.9,46.0,97,29.98,0.2,SW,8.1,-,N/A,Fog,Fog,220,2013-03-31 05:56:00
11:06 PM,46.4,44.6,93,30.04,0.2,SSW,9.2,-,N/A,Fog,Fog,200,2013-03-31 06:06:00
11:23 PM,44.6,44.6,100,30.05,1.0,SSW,10.4,-,N/A,,Mist,210,2013-03-31 06:23:00
11:27 PM,44.6,44.6,100,30.05,3.0,SSW,9.2,-,N/A,,Overcast,200,2013-03-31 06:27:00
11:31 PM,44.6,44.6,100,30.05,1.2,SSW,10.4,-,N/A,,Overcast,210,2013-03-31 06:31:00
11:42 PM,44.6,44.6,100,30.05,3.0,SSW,8.1,-,N/A,,Overcast,200,2013-03-31 06:42:00
11:56 PM,46.0,44.1,93,29.97,10.0,SW,6.9,-,N/A,,Mostly Cloudy,220,2013-03-31 06:56:00